Regional Weather Roundup
Issued by NWS

Home | Current Version | Previous Version | Text Only | Print | Product List | Glossary Off
Versions: 1 2 3 4 5 6 7 8 9 10 11 12 13 14 15 16 17 18 19 20 21 22 23 24 25 26 27 28 29 30 31 32 33 34 35 36 37 38 39 40 41 42 43 44 45 46 47 48 49 50

000
ASUS43 KMKX 210321
RWRWI

WISCONSIN REGIONAL WEATHER ROUNDUP
NATIONAL WEATHER SERVICE MILWAUKEE/SULLIVAN WI
1000 PM CDT SUN AUG 20 2017

NOTE: "FAIR" INDICATES FEW OR NO CLOUDS BELOW 12,000 FEET WITH NO
SIGNIFICANT WEATHER AND/OR OBSTRUCTIONS TO VISIBILITY.

WIZ001-002-006>008-014>016-023>028-210400-
NORTHWEST WISCONSIN

CITY           SKY/WX    TMP DP  RH WIND       PRES   REMARKS
SUPERIOR ARPT    N/A     63  59  86 W5        30.00R
ASHLAND        CLEAR     66  58  75 W6        30.01R
HAYWARD        CLOUDY    67  63  87 CALM      30.03R
SIREN          PTCLDY    67  62  82 N3        30.02R
CUMBERLAND     CLOUDY    68  64  88 CALM      30.02R
RICE LAKE      CLOUDY    71  67  87 CALM      30.03R FOG
CHETEK         CLOUDY    72  69  90 CALM      30.02R
LADYSMITH      CLOUDY    71  69  93 NW5       30.03R
EAU CLAIRE     CLOUDY    74  68  81 S3        30.00R
MENOMONIE      CLOUDY    75  70  85 W5        30.01R
NEW RICHMOND   CLEAR     68  62  81 CALM      30.02R
OSCEOLA        CLEAR     67  63  85 CALM      30.04R
$$

WIZ003>005-009-010-017-018-210400-
NORTH CENTRAL WISCONSIN

CITY           SKY/WX    TMP DP  RH WIND       PRES   REMARKS
MANITOWISH WTR CLOUDY    67  67 100 CALM      30.02R
ARBOR VITAE    PTCLDY    72  70  93 CALM      30.02R
WOODRUFF       PTCLDY    72  70  93 CALM      30.02R
RHINELANDER    CLOUDY    70  68  93 CALM      30.02R
EAGLE RIVER    PTCLDY    69  67  94 W3        30.01S
LAND O LAKES   CLOUDY    70  65  85 CALM      30.03R
PHILLIPS       PTCLDY    67  67 100 CALM      30.01R
TOMAHAWK         N/A     67  64  91 CALM      30.02S
MEDFORD        CLEAR     68  64  89 SW3       30.03R
MERRILL        CLOUDY    68  66  94 CALM      30.02R
$$

WIZ029-030-035-036-043>047-210400-
CENTRAL WISCONSIN

CITY           SKY/WX    TMP DP  RH WIND       PRES   REMARKS
WAUSAU         CLOUDY    72  66  81 SW6       30.00R
MOSINEE        PTCLDY    72  66  83 S9        30.02S
MARSHFIELD     CLOUDY    72  65  78 S8        30.02R
STEVENS POINT  PTCLDY    70  66  89 S7        30.03S
WAUPACA        CLEAR     72  68  88 CALM      30.03R
WAUTOMA        CLEAR     70  67  90 S5        30.04R
WISC RAPIDS    CLOUDY    72  67  84 W3        30.04R
CAMP DOUGLAS   CLEAR     70  67  90 S6        30.03R
$$

WIZ011>013-019>022-031-037>040-048>050-210400-
NORTHEAST WISCONSIN

CITY           SKY/WX    TMP DP  RH WIND       PRES   REMARKS
ANTIGO         CLOUDY    69  65  88 SW6       30.03S
SHAWANO        MOCLDY    74  67  77 SW5       30.00R
OCONTO         PTCLDY    73  67  82 SW7       29.99R
STURGEON BAY   CLEAR     71  68  90 SW9       30.00R
GREEN BAY      CLEAR     71  69  93 SW6       30.01R
MANITOWOC      CLEAR     72  68  87 W3        30.02S
APPLETON       MOCLDY    72  64  78 SW8       30.01R
CLINTONVILLE   CLEAR     70  64  83 SW7       30.01S
OSHKOSH        CLEAR     72  67  84 S6        30.02R
$$

WIZ032>034-041-042-053>061-210400-
SOUTHWEST WISCONSIN

CITY           SKY/WX    TMP DP  RH WIND       PRES   REMARKS
LA CROSSE      PTCLDY    79  67  66 S10       30.01R HX  81
SPARTA         PTCLDY    66  65  94 CALM      30.05R
VIROQUA        PTCLDY    69  66  89 CALM      30.07R
BOSCOBEL       CLEAR     67  65  93 CALM      30.04R
PRAIRIE DU CHI CLEAR     68  63  85 CALM      30.03R
PLATTEVILLE    CLEAR     66  66 100 NE3       30.04R
$$

WIZ056-057-062-063-064-067-068-210400-
SOUTH CENTRAL WISCONSIN

CITY           SKY/WX    TMP DP  RH WIND       PRES   REMARKS
REEDSBURG      CLEAR     69  69 100 CALM      30.04R
BARABOO/DELLS  CLEAR     69  66  90 S3        30.04S
LONE ROCK      CLEAR     66  66 100 NW3       30.04R
MINERAL POINT  CLEAR     70  70 100 CALM      30.05R
MADISON        CLEAR     70  68  93 CALM      30.03S
MIDDLETON      CLEAR     66  66 100 CALM      30.04S
WATERTOWN      CLEAR     66  66 100 CALM      30.04R
MONROE         CLEAR     70  64  83 CALM      30.04S
JANESVILLE     CLOUDY    70  70 100 E3        30.01F
$$

WIZ051-052-058>065-066-070>072-210400-
SOUTHEAST WISCONSIN

CITY           SKY/WX    TMP DP  RH WIND       PRES   REMARKS
MILWAUKEE      PTCLDY    72  65  78 SE5       30.03S
WAUKESHA       NOT AVBL
MILWAUKEE/TIMM CLEAR     72  61  68 CALM      30.05R
RACINE         PTCLDY    73  68  84 CALM      30.05S
KENOSHA        CLOUDY    72  67  84 CALM      30.04S
FOND DU LAC    CLEAR     70  66  87 W3        30.03R
SHEBOYGAN      CLEAR     68  68 100 S3        30.02S
WEST BEND      CLEAR     66  66 100 CALM      30.04R
JUNEAU         CLEAR     67  65  93 CALM      30.06R
$$

LSZ147-162-210400-
LAKE SUPERIOR

STATION/POSITION TIME  TEMP    WIND        PRES    WAVE
                       AIR SEA DIR/SP/G            HT/PER
                 (UTC) (F)     (DEG/KT/KT) (MB)    (FT/S)
W MID LAKE BUOY  0250   65 60  270/ 12/ 14 1013.7R   2/ 4
DEVILS ISLAND    0300   67     260/ 13/ 15 1015.0R
SAXON HARBOR     0230   71     240/  3/  6 1014.9R
$$

LMZ867-665-643>646-210400-
LAKE MICHIGAN

STATION/POSITION TIME  TEMP    WIND        PRES    WAVE
                       AIR SEA DIR/SP/G            HT/PER
                 (UTC) (F)     (DEG/KT/KT) (MB)    (FT/S)
S GREEN BAY BUOY 0230   74 72  210/ 10/ 14 1014.9R
N MID LAKE BUOY  0250   69 67  200/ 16/ 17 1014.9R   4/ 5
NORTHPORT PIER   0240   71     170/  5/  8 1014.6R
KEWAUNEE LAKESHO 0254   73     220/  8/ 11 1015.2R
SHEBOYGAN LAKESH 0200   73     190/  4/  4 1015.9R
PORT WASHINGTON  0230   73     230/  2/  3 1017.3S
ATWATER BUOY     0209   73 70  170/  6/  8 1016.9R
MILWAUKEE LAKESH 0300   75     160/  4/  4   N/A
S MID LAKE BUOY  0250   74 72  150/  6/  8 1016.9R   0
KENOSHA   LAKESH 0300   76     270/  2/  3 1016.6
$$

TC  - TEMPERATURE IN CELSIUS
VSB - VISIBILITY IN STATUTE MILES
WCI - WIND CHILL INDEX
HX  - HEAT INDEX




USA.gov is the U.S. government's official web portal to all federal, state and local government web resources and services.